BST,Max TemperatureF,Mean TemperatureF,Min TemperatureF,Max Dew PointF,MeanDew PointF,Min DewpointF,Max Humidity, Mean Humidity, Min Humidity, Max Sea Level PressureIn, Mean Sea Level PressureIn, Min Sea Level PressureIn, Max VisibilityMiles, Mean VisibilityMiles, Min VisibilityMiles, Max Wind SpeedMPH, Mean Wind SpeedMPH, Max Gust SpeedMPH,PrecipitationIn, CloudCover, Events, WindDirDegrees
2012-9-1,64,58,53,59,57,55,94,84,68,30.27,30.19,30.12,6,6,6,24,18,,0.00,3,,253
2012-9-2,64,62,59,63,59,54,100,88,67,30.33,30.23,30.15,6,6,1,22,13,,0.01,4,,289
2012-9-3,65,60,56,61,58,54,94,84,70,30.33,30.27,30.21,6,6,6,10,7,,0.00,1,,253
2012-9-4,63,60,57,63,54,48,100,77,54,30.30,30.25,30.18,6,6,2,20,15,,0.00,2,,305
2012-9-5,62,59,56,54,50,46,82,69,56,30.42,30.38,30.33,6,6,6,18,14,,0.00,2,,323
2012-9-6,65,54,44,57,53,44,100,82,67,30.36,30.27,30.21,6,6,6,23,10,,0.02,3,Rain,234
2012-9-7,62,60,59,59,59,57,94,91,81,30.24,30.22,30.18,6,6,6,18,14,,0.00,5,Rain,266
2012-9-8,65,60,55,61,59,55,100,91,82,30.15,30.07,29.95,6,6,0,9,5,,0.00,4,Fog,304
2012-9-9,69,58,47,61,56,46,100,81,47,29.83,29.71,29.62,6,6,4,22,12,,0.01,3,Rain,186
2012-9-10,63,59,54,61,59,52,100,93,81,29.68,29.65,29.59,6,5,2,18,15,,0.16,5,Rain,233
2012-9-11,58,54,50,49,45,43,82,68,56,29.92,29.86,29.71,6,6,6,25,19,37,0.02,3,Rain,287
2012-9-12,58,54,50,57,50,42,100,79,54,30.01,29.87,29.80,6,5,2,26,21,33,0.28,5,Rain,293
2012-9-13,60,52,44,57,52,42,94,81,60,30.09,30.00,29.86,6,6,6,26,16,,0.00,3,Rain,248
2012-9-14,60,58,57,56,50,47,89,73,56,29.98,29.85,29.74,6,6,6,33,28,44,0.01,2,Rain,288
2012-9-15,59,58,56,54,51,47,82,75,62,30.04,29.98,29.89,6,6,6,21,15,,0.00,6,,264
2012-9-16,59,58,56,59,54,48,100,87,64,29.83,29.76,29.68,6,6,2,24,18,,0.16,4,Rain,243
2012-9-17,59,56,53,52,51,46,88,77,61,29.80,29.77,29.71,6,6,5,25,22,,0.01,2,Rain,245
2012-9-18,56,53,50,48,45,43,77,69,63,30.04,29.90,29.74,6,6,6,23,20,,0.01,3,Rain,300
2012-9-19,57,52,48,48,45,43,82,69,54,30.15,30.13,30.09,6,6,6,20,17,23,0.02,2,Rain,289
2012-9-20,60,55,50,57,53,47,100,90,70,30.04,30.01,29.95,6,6,6,22,13,,0.00,4,Rain,231
2012-9-21,55,52,45,54,47,41,94,85,63,30.06,30.01,29.92,6,6,6,22,10,,0.00,3,Rain,58
2012-9-22,55,44,32,46,41,34,100,78,47,30.18,30.14,30.09,6,6,6,7,4,,0.00,1,Fog,93
2012-9-23,54,46,39,48,45,37,100,83,61,30.01,29.82,29.65,6,6,6,18,10,,0.00,2,Rain,97
2012-9-24,52,50,47,52,50,44,100,95,83,29.30,29.13,29.03,4,4,3,17,13,,0.00,6,Rain,51
2012-9-25,52,50,48,52,50,47,100,95,84,28.94,28.92,28.88,6,5,2,22,11,,0.00,6,Rain,284
2012-9-26,60,54,48,54,50,47,100,85,63,29.56,29.38,29.18,6,6,6,21,13,,0.00,4,Rain,44
2012-9-27,56,51,46,52,48,45,100,82,62,29.80,29.75,29.68,6,6,6,18,8,,0.00,3,Rain,276
2012-9-28,58,54,49,52,50,44,90,80,61,29.80,29.76,29.71,6,6,6,23,17,,0.00,3,Rain,269
2012-9-29,56,52,49,50,46,44,82,70,59,30.06,30.01,29.89,6,6,6,29,22,38,0.00,2,Rain,282
2012-9-30,58,56,53,57,55,51,100,96,77,29.89,29.83,29.80,6,4,2,24,18,,0.00,6,Rain,229